Location: Castelbiague
(43.0361°N, 0.9246°E)
Time: 12:06:04
(UTC+00:00)

Uribyol 2 - Pass Details

Date: 03 February 2022
Orbit: 781 x 797 km, 98.9° (Epoch: 26 May)

Event Time Altitude Azimuth Distance (km) Brightness Sun altitude
Rises 18:41:26 0° 172° (S) 3,252 ? -16.7°
Reaches altitude 10° 18:43:46 10° 175° (S) 2,328 ? -17.1°
Maximum altitude 18:48:51 66° 257° (WSW) 855 ? -18.1°
Drops below altitude 10° 18:54:00 10° 340° (NNW) 2,346 ? -19.0°
Sets 18:56:21 0° 344° (NNW) 3,280 ? -19.4°
